Time,TemperatureF,DewpointF,PressureIn,WindDirection,WindDirectionDegrees,WindSpeedMPH,WindSpeedGustMPH,Humidity,HourlyPrecipIn,Conditions,Clouds,dailyrainin,SoftwareType,DateUTC
2013-01-15 00:05:00,37.2,27.9,30.24,NW,304,0.0,0.0,69,0.00,CLR,,0.00,WeatherDisplay:10.37,2013-01-15 05:05:00,
2013-01-15 00:10:00,37.1,27.9,30.24,NNW,336,0.0,1.0,69,0.00,CLR,,0.00,WeatherDisplay:10.37,2013-01-15 05:10:00,
2013-01-15 00:15:00,37.2,27.6,30.24,NNW,329,0.0,0.0,68,0.00,CLR,,0.00,WeatherDisplay:10.37,2013-01-15 05:15:00,
2013-01-15 00:20:00,37.2,28.3,30.24,NW,312,0.0,0.0,70,0.00,CLR,,0.00,WeatherDisplay:10.37,2013-01-15 05:20:00,
2013-01-15 00:25:00,37.1,27.5,30.24,NW,315,0.0,0.0,68,0.00,CLR,,0.00,WeatherDisplay:10.37,2013-01-15 05:25:00,
2013-01-15 00:30:00,37.0,27.4,30.24,NNW,338,0.0,0.0,68,0.00,CLR,,0.00,WeatherDisplay:10.37,2013-01-15 05:30:00,
2013-01-15 00:35:00,37.1,27.1,30.24,North,349,0.0,1.0,67,0.00,CLR,,0.00,WeatherDisplay:10.37,2013-01-15 05:35:00,
2013-01-15 00:40:00,37.1,27.1,30.25,NNW,343,0.0,0.0,67,0.00,CLR,,0.00,WeatherDisplay:10.37,2013-01-15 05:40:00,
2013-01-15 00:45:00,37.0,27.1,30.25,NNW,343,0.0,0.0,67,0.00,CLR,,0.00,WeatherDisplay:10.37,2013-01-15 05:45:00,
2013-01-15 00:50:00,37.0,27.4,30.25,NNW,343,0.0,0.0,68,0.00,CLR,,0.00,WeatherDisplay:10.37,2013-01-15 05:50:00,
2013-01-15 00:55:00,37.0,27.1,30.25,NNW,343,0.0,0.0,67,0.00,CLR,,0.00,WeatherDisplay:10.37,2013-01-15 05:55:00,
2013-01-15 01:00:00,37.0,27.0,30.25,NNW,343,0.0,0.0,67,0.00,CLR,,0.00,WeatherDisplay:10.37,2013-01-15 06:00:00,
2013-01-15 01:05:00,36.9,27.3,30.25,NNW,343,0.0,0.0,68,0.00,CLR,,0.00,WeatherDisplay:10.37,2013-01-15 06:05:00,
2013-01-15 01:10:00,36.7,27.8,30.25,NNW,343,0.0,0.0,70,0.00,CLR,,0.00,WeatherDisplay:10.37,2013-01-15 06:10:00,
2013-01-15 01:15:00,36.5,28.0,30.26,NNW,343,0.0,0.0,71,0.00,CLR,,0.00,WeatherDisplay:10.37,2013-01-15 06:15:00,
2013-01-15 01:20:00,36.4,27.9,30.26,NW,318,0.0,0.0,71,0.00,CLR,,0.00,WeatherDisplay:10.37,2013-01-15 06:20:00,
2013-01-15 01:25:00,36.2,27.7,30.24,NNW,340,0.0,0.0,71,0.00,CLR,,0.00,WeatherDisplay:10.37,2013-01-15 06:25:00,
2013-01-15 01:30:00,36.2,27.7,30.25,NNW,327,0.0,0.0,71,0.00,CLR,,0.00,WeatherDisplay:10.37,2013-01-15 06:30:00,
2013-01-15 01:40:00,36.2,27.7,30.26,WNW,296,0.0,2.0,71,0.00,CLR,,0.00,WeatherDisplay:10.37,2013-01-15 06:40:00,
2013-01-15 01:45:00,36.2,27.7,30.27,NW,315,0.0,3.0,71,0.00,CLR,,0.00,WeatherDisplay:10.37,2013-01-15 06:45:00,
2013-01-15 01:50:00,36.4,27.2,30.25,WNW,299,1.0,5.0,69,0.00,CLR,,0.00,WeatherDisplay:10.37,2013-01-15 06:50:00,
2013-01-15 01:55:00,36.5,27.7,30.25,NW,309,0.0,1.0,70,0.00,CLR,,0.00,WeatherDisplay:10.37,2013-01-15 06:55:00,
2013-01-15 02:00:00,36.6,27.3,30.25,NNW,345,0.0,1.0,69,0.00,CLR,,0.00,WeatherDisplay:10.37,2013-01-15 07:00:00,
2013-01-15 02:05:00,36.6,27.4,30.25,NW,322,0.0,0.0,69,0.00,CLR,,0.00,WeatherDisplay:10.37,2013-01-15 07:05:00,
2013-01-15 02:10:00,36.5,27.0,30.25,NW,309,0.0,0.0,68,0.00,CLR,,0.00,WeatherDisplay:10.37,2013-01-15 07:10:00,
2013-01-15 02:15:00,36.5,27.3,30.25,NW,307,0.0,0.0,69,0.00,CLR,,0.00,WeatherDisplay:10.37,2013-01-15 07:15:00,
2013-01-15 02:20:00,36.4,27.6,30.25,NW,321,0.0,1.0,70,0.00,CLR,,0.00,WeatherDisplay:10.37,2013-01-15 07:20:00,
2013-01-15 02:25:00,36.4,27.2,30.24,NNW,344,0.0,0.0,69,0.00,CLR,,0.00,WeatherDisplay:10.37,2013-01-15 07:25:00,
2013-01-15 02:30:00,36.2,27.7,30.24,NNW,344,0.0,0.0,71,0.00,CLR,,0.00,WeatherDisplay:10.37,2013-01-15 07:30:00,
2013-01-15 02:35:00,36.1,27.6,30.23,NNW,344,0.0,0.0,71,0.00,CLR,,0.00,WeatherDisplay:10.37,2013-01-15 07:35:00,
2013-01-15 02:40:00,35.9,28.1,30.24,NNW,344,0.0,0.0,73,0.00,CLR,,0.00,WeatherDisplay:10.37,2013-01-15 07:40:00,
2013-01-15 02:45:00,35.7,28.2,30.23,NNW,344,0.0,0.0,74,0.00,CLR,,0.00,WeatherDisplay:10.37,2013-01-15 07:45:00,
2013-01-15 02:50:00,35.5,28.0,30.24,NNW,344,0.0,0.0,74,0.00,CLR,,0.00,WeatherDisplay:10.37,2013-01-15 07:50:00,
2013-01-15 02:55:00,35.3,27.5,30.24,NNW,344,0.0,0.0,73,0.00,CLR,,0.00,WeatherDisplay:10.37,2013-01-15 07:55:00,
2013-01-15 03:00:00,35.2,28.1,30.25,NNW,344,0.0,0.0,75,0.00,CLR,,0.00,WeatherDisplay:10.37,2013-01-15 08:00:00,
2013-01-15 03:05:00,35.1,28.0,30.24,NNW,344,0.0,0.0,75,0.00,FEW,,0.00,WeatherDisplay:10.37,2013-01-15 08:05:00,
2013-01-15 03:10:00,35.0,28.5,30.25,NNW,344,0.0,0.0,77,0.00,FEW,,0.00,WeatherDisplay:10.37,2013-01-15 08:10:00,
2013-01-15 03:15:00,34.8,29.0,30.23,NNW,344,0.0,0.0,79,0.00,FEW,,0.00,WeatherDisplay:10.37,2013-01-15 08:15:00,
2013-01-15 03:20:00,34.6,29.0,30.22,NNW,344,0.0,0.0,80,0.00,FEW,,0.00,WeatherDisplay:10.37,2013-01-15 08:20:00,
2013-01-15 03:25:00,34.3,28.8,30.22,NNW,344,0.0,0.0,80,0.00,FEW,,0.00,WeatherDisplay:10.37,2013-01-15 08:25:00,
2013-01-15 03:30:00,34.2,28.7,30.22,NNW,344,0.0,0.0,80,0.00,FEW,,0.00,WeatherDisplay:10.37,2013-01-15 08:30:00,
2013-01-15 03:35:00,34.1,28.9,30.22,NNW,344,0.0,0.0,81,0.00,FEW,,0.00,WeatherDisplay:10.37,2013-01-15 08:35:00,
2013-01-15 03:40:00,34.1,28.9,30.23,NNW,344,0.0,0.0,81,0.00,FEW,,0.00,WeatherDisplay:10.37,2013-01-15 08:40:00,
2013-01-15 03:45:00,34.1,29.2,30.24,NNW,336,0.0,1.0,82,0.00,FEW,,0.00,WeatherDisplay:10.37,2013-01-15 08:45:00,
2013-01-15 03:50:00,34.0,29.7,30.22,NW,319,0.0,0.0,84,0.00,FEW,,0.00,WeatherDisplay:10.37,2013-01-15 08:50:00,
2013-01-15 04:00:00,33.8,29.5,30.23,NW,315,0.0,0.0,84,0.00,FEW,,0.00,WeatherDisplay:10.37,2013-01-15 09:00:00,
2013-01-15 04:05:00,33.8,29.5,30.23,NW,315,0.0,0.0,84,0.00,FEW,,0.00,WeatherDisplay:10.37,2013-01-15 09:05:00,
2013-01-15 04:10:00,33.7,29.4,30.23,NW,315,0.0,0.0,84,0.00,FEW,,0.00,WeatherDisplay:10.37,2013-01-15 09:10:00,
2013-01-15 04:15:00,33.7,29.4,30.22,NW,315,0.0,0.0,84,0.00,FEW,,0.00,WeatherDisplay:10.37,2013-01-15 09:15:00,
2013-01-15 04:20:00,33.6,29.6,30.22,NW,315,0.0,0.0,85,0.00,OVC,,0.00,WeatherDisplay:10.37,2013-01-15 09:20:00,
2013-01-15 04:25:00,33.5,29.5,30.22,NW,315,0.0,0.0,85,0.00,OVC,,0.00,WeatherDisplay:10.37,2013-01-15 09:25:00,
2013-01-15 04:30:00,33.5,29.1,30.22,NW,315,0.0,0.0,84,0.00,OVC,,0.00,WeatherDisplay:10.37,2013-01-15 09:30:00,
2013-01-15 04:35:00,33.4,29.4,30.22,NW,315,0.0,0.0,85,0.00,OVC,,0.00,WeatherDisplay:10.37,2013-01-15 09:35:00,
2013-01-15 04:40:00,33.3,29.3,30.22,NW,315,0.0,0.0,85,0.00,OVC,,0.00,WeatherDisplay:10.37,2013-01-15 09:40:00,
2013-01-15 04:45:00,33.2,28.9,30.21,NW,315,0.0,0.0,84,0.00,OVC,,0.00,WeatherDisplay:10.37,2013-01-15 09:45:00,
2013-01-15 04:50:00,33.0,29.0,30.22,NW,315,0.0,0.0,85,0.00,OVC,,0.00,WeatherDisplay:10.37,2013-01-15 09:50:00,
2013-01-15 04:55:00,32.9,29.2,30.22,NW,315,0.0,0.0,86,0.00,OVC,,0.00,WeatherDisplay:10.37,2013-01-15 09:55:00,
2013-01-15 05:00:00,32.8,28.8,30.22,NW,315,0.0,0.0,85,0.00,OVC,,0.00,WeatherDisplay:10.37,2013-01-15 10:00:00,
2013-01-15 05:05:00,32.6,28.3,30.22,NW,315,0.0,0.0,84,0.00,OVC,,0.00,WeatherDisplay:10.37,2013-01-15 10:05:00,
2013-01-15 05:10:00,32.5,28.5,30.23,NW,315,0.0,0.0,85,0.00,OVC,,0.00,WeatherDisplay:10.37,2013-01-15 10:10:00,
2013-01-15 05:15:00,32.4,28.4,30.23,NW,315,0.0,0.0,85,0.00,OVC,,0.00,WeatherDisplay:10.37,2013-01-15 10:15:00,
2013-01-15 05:20:00,32.2,28.2,30.22,NW,315,0.0,0.0,85,0.00,CLR,,0.00,WeatherDisplay:10.37,2013-01-15 10:20:00,
2013-01-15 05:25:00,32.0,28.3,30.22,NW,315,0.0,0.0,86,0.00,CLR,,0.00,WeatherDisplay:10.37,2013-01-15 10:25:00,
2013-01-15 05:30:00,31.7,28.0,30.23,NW,315,0.0,0.0,86,0.00,CLR,,0.00,WeatherDisplay:10.37,2013-01-15 10:30:00,
2013-01-15 05:35:00,31.5,27.8,30.23,NW,315,0.0,0.0,86,0.00,CLR,,0.00,WeatherDisplay:10.37,2013-01-15 10:35:00,
2013-01-15 05:40:00,31.2,27.8,30.23,NW,315,0.0,0.0,87,0.00,CLR,,0.00,WeatherDisplay:10.37,2013-01-15 10:40:00,
2013-01-15 05:45:00,31.0,27.6,30.23,NW,315,0.0,0.0,87,0.00,CLR,,0.00,WeatherDisplay:10.37,2013-01-15 10:45:00,
2013-01-15 05:50:00,30.8,27.7,30.22,NW,315,0.0,0.0,88,0.00,CLR,,0.00,WeatherDisplay:10.37,2013-01-15 10:50:00,
2013-01-15 05:55:00,30.7,27.5,30.21,NW,315,0.0,0.0,88,0.00,CLR,,0.00,WeatherDisplay:10.37,2013-01-15 10:55:00,
2013-01-15 06:00:00,30.4,27.0,30.21,NW,315,0.0,0.0,87,0.00,CLR,,0.00,WeatherDisplay:10.37,2013-01-15 11:00:00,
2013-01-15 06:05:00,30.3,26.8,30.23,NW,315,0.0,0.0,87,0.00,CLR,,0.00,WeatherDisplay:10.37,2013-01-15 11:05:00,
2013-01-15 06:10:00,30.1,27.0,30.24,NW,315,0.0,0.0,88,0.00,CLR,,0.00,WeatherDisplay:10.37,2013-01-15 11:10:00,
2013-01-15 06:15:00,29.9,26.8,30.24,NW,315,0.0,0.0,88,0.00,CLR,,0.00,WeatherDisplay:10.37,2013-01-15 11:15:00,
2013-01-15 06:20:00,29.8,26.7,30.24,NW,315,0.0,0.0,88,0.00,CLR,,0.00,WeatherDisplay:10.37,2013-01-15 11:20:00,
2013-01-15 06:25:00,29.7,26.9,30.25,NW,315,0.0,0.0,89,0.00,CLR,,0.00,WeatherDisplay:10.37,2013-01-15 11:25:00,
2013-01-15 06:30:00,29.6,26.7,30.25,NW,323,0.0,0.0,89,0.00,CLR,,0.00,WeatherDisplay:10.37,2013-01-15 11:30:00,
2013-01-15 06:35:00,29.3,26.5,30.25,NNW,333,0.0,0.0,89,0.00,CLR,,0.00,WeatherDisplay:10.37,2013-01-15 11:35:00,
2013-01-15 06:40:00,29.2,26.6,30.26,NNW,348,0.0,0.0,90,0.00,CLR,,0.00,WeatherDisplay:10.37,2013-01-15 11:40:00,
2013-01-15 06:45:00,29.0,26.4,30.26,NE,35,0.0,0.0,90,0.00,CLR,,0.00,WeatherDisplay:10.37,2013-01-15 11:45:00,
2013-01-15 06:55:00,28.9,26.3,30.26,SE,124,0.0,0.0,90,0.00,CLR,,0.00,WeatherDisplay:10.37,2013-01-15 11:55:00,
2013-01-15 07:00:00,28.9,26.1,30.26,SE,130,0.0,0.0,89,0.00,CLR,,0.00,WeatherDisplay:10.37,2013-01-15 12:00:00,
2013-01-15 07:05:00,28.9,26.1,30.27,SE,130,0.0,0.0,89,0.00,CLR,,0.00,WeatherDisplay:10.37,2013-01-15 12:05:00,
2013-01-15 07:10:00,28.9,26.1,30.27,SE,130,0.0,0.0,89,0.00,CLR,,0.00,WeatherDisplay:10.37,2013-01-15 12:10:00,
2013-01-15 07:15:00,29.0,26.2,30.27,SSE,159,0.0,0.0,89,0.00,CLR,,0.00,WeatherDisplay:10.37,2013-01-15 12:15:00,
2013-01-15 07:20:00,29.0,26.2,30.27,West,281,0.0,0.0,89,0.00,CLR,,0.00,WeatherDisplay:10.37,2013-01-15 12:20:00,
2013-01-15 07:25:00,29.0,25.9,30.27,NW,307,0.0,0.0,88,0.00,CLR,,0.00,WeatherDisplay:10.37,2013-01-15 12:25:00,
2013-01-15 07:30:00,29.0,25.9,30.27,NW,309,0.0,0.0,88,0.00,CLR,,0.00,WeatherDisplay:10.37,2013-01-15 12:30:00,
2013-01-15 07:35:00,29.0,26.2,30.28,NW,309,0.0,0.0,89,0.00,CLR,,0.00,WeatherDisplay:10.37,2013-01-15 12:35:00,
2013-01-15 07:40:00,29.0,26.4,30.28,NW,309,0.0,0.0,90,0.00,CLR,,0.00,WeatherDisplay:10.37,2013-01-15 12:40:00,
2013-01-15 07:45:00,29.0,26.4,30.29,NW,309,0.0,0.0,90,0.00,CLR,,0.00,WeatherDisplay:10.37,2013-01-15 12:45:00,
2013-01-15 07:50:00,29.0,26.4,30.29,NW,309,0.0,0.0,90,0.00,CLR,,0.00,WeatherDisplay:10.37,2013-01-15 12:50:00,
2013-01-15 07:55:00,29.0,26.4,30.29,NW,309,0.0,0.0,90,0.00,CLR,,0.00,WeatherDisplay:10.37,2013-01-15 12:55:00,
2013-01-15 08:00:00,28.9,26.1,30.29,NW,309,0.0,0.0,89,0.00,CLR,,0.00,WeatherDisplay:10.37,2013-01-15 13:00:00,
2013-01-15 08:05:00,28.9,26.3,30.29,NW,309,0.0,0.0,90,0.00,CLR,,0.00,WeatherDisplay:10.37,2013-01-15 13:05:00,
2013-01-15 08:10:00,28.8,26.2,30.29,NW,309,0.0,0.0,90,0.00,CLR,,0.00,WeatherDisplay:10.37,2013-01-15 13:10:00,
2013-01-15 08:15:00,28.8,26.0,30.29,NW,309,0.0,0.0,89,0.00,CLR,,0.00,WeatherDisplay:10.37,2013-01-15 13:15:00,
2013-01-15 08:20:00,28.7,25.9,30.29,NW,309,0.0,0.0,89,0.00,CLR,,0.00,WeatherDisplay:10.37,2013-01-15 13:20:00,
2013-01-15 08:30:00,28.8,25.9,30.29,NW,309,0.0,0.0,89,0.00,CLR,,0.00,WeatherDisplay:10.37,2013-01-15 13:30:00,
2013-01-15 08:35:00,28.8,26.0,30.30,NW,309,0.0,0.0,89,0.00,CLR,,0.00,WeatherDisplay:10.37,2013-01-15 13:35:00,
2013-01-15 08:50:00,29.2,26.4,30.29,NW,309,0.0,0.0,89,0.00,CLR,,0.00,WeatherDisplay:10.37,2013-01-15 13:50:00,
2013-01-15 09:05:00,30.4,27.0,30.29,North,9,0.0,1.0,87,0.00,CLR,,0.00,WeatherDisplay:10.37,2013-01-15 14:05:00,
2013-01-15 09:10:00,31.0,27.0,30.29,North,9,0.0,1.0,85,0.00,CLR,,0.00,WeatherDisplay:10.37,2013-01-15 14:10:00,
2013-01-15 09:25:00,32.6,27.1,30.30,NNW,342,0.0,3.0,80,0.00,CLR,,0.00,WeatherDisplay:10.37,2013-01-15 14:25:00,
2013-01-15 09:30:00,33.1,27.3,30.30,NNW,346,0.0,2.0,79,0.00,CLR,,0.00,WeatherDisplay:10.37,2013-01-15 14:30:00,
2013-01-15 09:40:00,33.7,27.3,30.30,WNW,299,0.0,2.0,77,0.00,CLR,,0.00,WeatherDisplay:10.37,2013-01-15 14:40:00,
2013-01-15 09:45:00,34.0,27.3,30.30,WNW,297,1.0,3.0,76,0.00,CLR,,0.00,WeatherDisplay:10.37,2013-01-15 14:45:00,
2013-01-15 09:55:00,34.7,27.0,30.30,NW,321,1.0,4.0,73,0.00,CLR,,0.00,WeatherDisplay:10.37,2013-01-15 14:55:00,
2013-01-15 10:00:00,35.1,27.3,30.30,North,349,0.0,2.0,73,0.00,CLR,,0.00,WeatherDisplay:10.37,2013-01-15 15:00:00,
2013-01-15 10:05:00,35.3,27.2,30.30,NNW,344,1.0,3.0,72,0.00,CLR,,0.00,WeatherDisplay:10.37,2013-01-15 15:05:00,
2013-01-15 10:15:00,35.9,27.4,30.31,NW,320,0.0,3.0,71,0.00,CLR,,0.00,WeatherDisplay:10.37,2013-01-15 15:15:00,
2013-01-15 10:20:00,36.1,26.9,30.30,WNW,299,1.0,5.0,69,0.00,FEW,,0.00,WeatherDisplay:10.37,2013-01-15 15:20:00,
2013-01-15 10:35:00,36.6,26.3,30.31,WNW,301,1.0,5.0,66,0.00,FEW,,0.00,WeatherDisplay:10.37,2013-01-15 15:35:00,
2013-01-15 10:40:00,36.9,27.0,30.30,NNW,334,0.0,3.0,67,0.00,FEW,,0.00,WeatherDisplay:10.37,2013-01-15 15:40:00,
2013-01-15 10:50:00,37.3,26.6,30.29,WNW,283,0.0,3.0,65,0.00,FEW,,0.00,WeatherDisplay:10.37,2013-01-15 15:50:00,
2013-01-15 10:55:00,37.6,26.9,30.28,NNW,337,1.0,5.0,65,0.00,FEW,,0.00,WeatherDisplay:10.37,2013-01-15 15:55:00,
2013-01-15 11:10:00,38.0,26.9,30.27,West,269,0.0,5.0,64,0.00,FEW,,0.00,WeatherDisplay:10.37,2013-01-15 16:10:00,
2013-01-15 11:15:00,38.1,27.0,30.27,West,267,2.0,5.0,64,0.00,FEW,,0.00,WeatherDisplay:10.37,2013-01-15 16:15:00,
2013-01-15 11:25:00,38.3,26.8,30.26,NW,304,0.0,5.0,63,0.00,FEW,,0.00,WeatherDisplay:10.37,2013-01-15 16:25:00,
2013-01-15 11:30:00,38.4,26.9,30.26,WNW,285,1.0,4.0,63,0.00,FEW,,0.00,WeatherDisplay:10.37,2013-01-15 16:30:00,
2013-01-15 11:40:00,38.6,27.1,30.26,West,271,2.0,4.0,63,0.00,FEW,,0.00,WeatherDisplay:10.37,2013-01-15 16:40:00,
2013-01-15 11:45:00,38.8,27.2,30.26,WNW,288,0.0,2.0,63,0.00,FEW,,0.00,WeatherDisplay:10.37,2013-01-15 16:45:00,
2013-01-15 11:50:00,38.9,26.6,30.26,NW,315,1.0,9.0,61,0.00,FEW,,0.00,WeatherDisplay:10.37,2013-01-15 16:50:00,
2013-01-15 12:00:00,39.2,26.5,30.26,WNW,290,0.0,3.0,60,0.00,FEW,,0.00,WeatherDisplay:10.37,2013-01-15 17:00:00,
2013-01-15 12:05:00,39.2,26.1,30.26,NNW,343,1.0,5.0,59,0.00,FEW,,0.00,WeatherDisplay:10.37,2013-01-15 17:05:00,
2013-01-15 12:15:00,39.4,26.3,30.25,NW,307,0.0,2.0,59,0.00,FEW,,0.00,WeatherDisplay:10.37,2013-01-15 17:15:00,
2013-01-15 12:20:00,39.6,26.0,30.25,NNW,334,0.0,4.0,58,0.00,FEW,,0.00,WeatherDisplay:10.37,2013-01-15 17:20:00,
2013-01-15 12:25:00,39.6,26.5,30.25,WNW,290,3.0,6.0,59,0.00,FEW,,0.00,WeatherDisplay:10.37,2013-01-15 17:25:00,
2013-01-15 12:35:00,39.8,26.2,30.25,North,353,1.0,4.0,58,0.00,FEW,,0.00,WeatherDisplay:10.37,2013-01-15 17:35:00,
2013-01-15 12:40:00,39.8,25.8,30.25,NNE,23,1.0,5.0,57,0.00,FEW,,0.00,WeatherDisplay:10.37,2013-01-15 17:40:00,
2013-01-15 12:55:00,39.8,26.2,30.25,WNW,289,2.0,4.0,58,0.00,FEW,,0.00,WeatherDisplay:10.37,2013-01-15 17:55:00,
2013-01-15 13:00:00,39.7,26.6,30.25,WNW,284,0.0,2.0,59,0.00,FEW,,0.00,WeatherDisplay:10.37,2013-01-15 18:00:00,
2013-01-15 13:10:00,39.8,26.2,30.25,NW,304,1.0,3.0,58,0.00,FEW,,0.00,WeatherDisplay:10.37,2013-01-15 18:10:00,
2013-01-15 13:15:00,39.8,25.8,30.25,West,272,0.0,2.0,57,0.00,FEW,,0.00,WeatherDisplay:10.37,2013-01-15 18:15:00,
2013-01-15 13:30:00,39.9,26.3,30.25,NNW,332,0.0,1.0,58,0.00,FEW,,0.00,WeatherDisplay:10.37,2013-01-15 18:30:00,
2013-01-15 13:35:00,39.9,26.3,30.25,NNW,346,0.0,4.0,58,0.00,FEW,,0.00,WeatherDisplay:10.37,2013-01-15 18:35:00,
2013-01-15 13:45:00,39.7,25.7,30.25,NNW,339,0.0,4.0,57,0.00,FEW,,0.00,WeatherDisplay:10.37,2013-01-15 18:45:00,
2013-01-15 13:50:00,39.7,26.1,30.25,WNW,299,0.0,3.0,58,0.00,FEW,,0.00,WeatherDisplay:10.37,2013-01-15 18:50:00,
2013-01-15 14:05:00,39.4,25.0,30.24,NW,306,0.0,2.0,56,0.00,FEW,,0.00,WeatherDisplay:10.37,2013-01-15 19:05:00,
2013-01-15 14:10:00,39.4,25.4,30.25,NNW,336,0.0,1.0,57,0.00,FEW,,0.00,WeatherDisplay:10.37,2013-01-15 19:10:00,
2013-01-15 14:20:00,39.4,25.4,30.25,WNW,296,2.0,4.0,57,0.00,FEW,,0.00,WeatherDisplay:10.37,2013-01-15 19:20:00,
2013-01-15 14:25:00,39.3,25.7,30.25,WNW,289,0.0,2.0,58,0.00,FEW,,0.00,WeatherDisplay:10.37,2013-01-15 19:25:00,
2013-01-15 14:35:00,39.2,25.3,30.25,NW,310,0.0,3.0,57,0.00,FEW,,0.00,WeatherDisplay:10.37,2013-01-15 19:35:00,
2013-01-15 14:40:00,39.2,24.8,30.25,WNW,299,0.0,5.0,56,0.00,FEW,,0.00,WeatherDisplay:10.37,2013-01-15 19:40:00,
2013-01-15 14:45:00,39.2,25.2,30.25,North,355,0.0,5.0,57,0.00,FEW,,0.00,WeatherDisplay:10.37,2013-01-15 19:45:00,
2013-01-15 14:55:00,39.1,25.6,30.25,WNW,296,0.0,2.0,58,0.00,FEW,,0.00,WeatherDisplay:10.37,2013-01-15 19:55:00,
2013-01-15 15:00:00,39.1,25.9,30.25,North,4,0.0,0.0,59,0.00,FEW,,0.00,WeatherDisplay:10.37,2013-01-15 20:00:00,
2013-01-15 15:15:00,38.7,26.0,30.24,NNW,334,0.0,2.0,60,0.00,FEW,,0.00,WeatherDisplay:10.37,2013-01-15 20:15:00,
2013-01-15 15:20:00,38.6,25.5,30.25,NNE,19,0.0,0.0,59,0.00,FEW,,0.00,WeatherDisplay:10.37,2013-01-15 20:20:00,
2013-01-15 15:30:00,38.5,25.4,30.24,North,349,0.0,0.0,59,0.00,FEW,,0.00,WeatherDisplay:10.37,2013-01-15 20:30:00,
2013-01-15 15:35:00,38.4,25.7,30.23,NNW,344,0.0,0.0,60,0.00,FEW,,0.00,WeatherDisplay:10.37,2013-01-15 20:35:00,
2013-01-15 15:50:00,38.0,25.7,30.23,NNW,348,0.0,0.0,61,0.00,FEW,,0.00,WeatherDisplay:10.37,2013-01-15 20:50:00,
2013-01-15 15:55:00,37.9,25.2,30.23,NNW,348,0.0,0.0,60,0.00,FEW,,0.00,WeatherDisplay:10.37,2013-01-15 20:55:00,
2013-01-15 16:05:00,37.5,26.0,30.23,North,349,0.0,0.0,63,0.00,FEW,,0.00,WeatherDisplay:10.37,2013-01-15 21:05:00,
2013-01-15 16:10:00,37.3,25.8,30.23,North,349,0.0,0.0,63,0.00,FEW,,0.00,WeatherDisplay:10.37,2013-01-15 21:10:00,
2013-01-15 16:25:00,36.7,27.4,30.24,NNW,348,0.0,0.0,69,0.00,FEW,,0.00,WeatherDisplay:10.37,2013-01-15 21:25:00,
2013-01-15 16:30:00,36.4,28.2,30.24,NNW,348,0.0,0.0,72,0.00,FEW,,0.00,WeatherDisplay:10.37,2013-01-15 21:30:00,
2013-01-15 16:40:00,35.9,28.1,30.25,North,349,0.0,0.0,73,0.00,FEW,,0.00,WeatherDisplay:10.37,2013-01-15 21:40:00,
2013-01-15 16:45:00,35.5,27.4,30.25,North,349,0.0,0.0,72,0.00,FEW,,0.00,WeatherDisplay:10.37,2013-01-15 21:45:00,
2013-01-15 17:00:00,34.7,28.0,30.25,North,349,0.0,0.0,76,0.00,FEW,,0.00,WeatherDisplay:10.37,2013-01-15 22:00:00,
2013-01-15 17:05:00,34.5,28.7,30.26,North,349,0.0,0.0,79,0.00,FEW,,0.00,WeatherDisplay:10.37,2013-01-15 22:05:00,
2013-01-15 17:15:00,34.1,28.6,30.25,North,349,0.0,0.0,80,0.00,FEW,,0.00,WeatherDisplay:10.37,2013-01-15 22:15:00,
2013-01-15 17:20:00,33.9,27.8,30.26,North,349,0.0,0.0,78,0.00,FEW,,0.00,WeatherDisplay:10.37,2013-01-15 22:20:00,
2013-01-15 17:35:00,33.3,28.7,30.26,North,349,0.0,0.0,83,0.00,FEW,,0.00,WeatherDisplay:10.37,2013-01-15 22:35:00,
2013-01-15 17:40:00,33.1,28.5,30.26,North,349,0.0,0.0,83,0.00,FEW,,0.00,WeatherDisplay:10.37,2013-01-15 22:40:00,
2013-01-15 17:50:00,32.7,27.2,30.26,North,349,0.0,0.0,80,0.00,FEW,,0.00,WeatherDisplay:10.37,2013-01-15 22:50:00,
2013-01-15 17:55:00,32.6,28.0,30.25,North,349,0.0,0.0,83,0.00,FEW,,0.00,WeatherDisplay:10.37,2013-01-15 22:55:00,
2013-01-15 18:10:00,32.1,26.9,30.26,North,349,0.0,0.0,81,0.00,FEW,,0.00,WeatherDisplay:10.37,2013-01-15 23:10:00,
2013-01-15 18:15:00,32.0,26.8,30.26,NNW,348,0.0,0.0,81,0.00,FEW,,0.00,WeatherDisplay:10.37,2013-01-15 23:15:00,
2013-01-15 18:30:00,31.4,25.6,30.27,North,349,0.0,0.0,79,0.00,CLR,,0.00,WeatherDisplay:10.37,2013-01-15 23:30:00,
2013-01-15 18:45:00,30.8,25.1,30.27,North,349,0.0,0.0,79,0.00,CLR,,0.00,WeatherDisplay:10.37,2013-01-15 23:45:00,
2013-01-15 18:50:00,30.7,26.4,30.27,North,349,0.0,0.0,84,0.00,CLR,,0.00,WeatherDisplay:10.37,2013-01-15 23:50:00,
2013-01-15 19:05:00,30.2,25.7,30.27,North,349,0.0,0.0,83,0.00,CLR,,0.00,WeatherDisplay:10.37,2013-01-16 00:05:00,
2013-01-15 19:20:00,29.8,25.8,30.27,North,349,0.0,0.0,85,0.00,CLR,,0.00,WeatherDisplay:10.37,2013-01-16 00:20:00,
2013-01-15 19:25:00,29.7,25.5,30.26,North,349,0.0,0.0,84,0.00,CLR,,0.00,WeatherDisplay:10.37,2013-01-16 00:25:00,
2013-01-15 19:50:00,29.2,24.7,30.26,North,349,0.0,0.0,83,0.00,CLR,,0.00,WeatherDisplay:10.37,2013-01-16 00:50:00,
2013-01-15 19:55:00,29.2,24.7,30.26,North,349,0.0,0.0,83,0.00,CLR,,0.00,WeatherDisplay:10.37,2013-01-16 00:55:00,
2013-01-15 20:00:00,29.0,24.5,30.26,North,349,0.0,0.0,83,0.00,CLR,,0.00,WeatherDisplay:10.37,2013-01-16 01:00:00,
2013-01-15 20:05:00,29.0,24.5,30.26,North,349,0.0,0.0,83,0.00,CLR,,0.00,WeatherDisplay:10.37,2013-01-16 01:05:00,
2013-01-15 20:10:00,28.9,24.4,30.26,North,349,0.0,0.0,83,0.00,CLR,,0.00,WeatherDisplay:10.37,2013-01-16 01:10:00,
2013-01-15 20:15:00,28.9,24.7,30.26,North,349,0.0,0.0,84,0.00,CLR,,0.00,WeatherDisplay:10.37,2013-01-16 01:15:00,
2013-01-15 20:20:00,28.9,25.0,30.26,North,349,0.0,0.0,85,0.00,CLR,,0.00,WeatherDisplay:10.37,2013-01-16 01:20:00,
2013-01-15 20:25:00,28.9,24.9,30.26,North,349,0.0,0.0,85,0.00,CLR,,0.00,WeatherDisplay:10.37,2013-01-16 01:25:00,
2013-01-15 20:30:00,28.8,24.9,30.27,North,349,0.0,0.0,85,0.00,CLR,,0.00,WeatherDisplay:10.37,2013-01-16 01:30:00,
2013-01-15 20:35:00,28.8,24.9,30.26,North,349,0.0,0.0,85,0.00,CLR,,0.00,WeatherDisplay:10.37,2013-01-16 01:35:00,
2013-01-15 20:40:00,28.8,25.1,30.25,North,349,0.0,0.0,86,0.00,CLR,,0.00,WeatherDisplay:10.37,2013-01-16 01:40:00,
2013-01-15 20:45:00,28.8,24.9,30.25,North,349,0.0,0.0,85,0.00,CLR,,0.00,WeatherDisplay:10.37,2013-01-16 01:45:00,
2013-01-15 20:50:00,28.8,25.1,30.25,North,349,0.0,0.0,86,0.00,CLR,,0.00,WeatherDisplay:10.37,2013-01-16 01:50:00,
2013-01-15 20:55:00,28.8,25.1,30.25,North,349,0.0,0.0,86,0.00,CLR,,0.00,WeatherDisplay:10.37,2013-01-16 01:55:00,
2013-01-15 21:00:00,28.8,25.1,30.25,North,349,0.0,0.0,86,0.00,CLR,,0.00,WeatherDisplay:10.37,2013-01-16 02:00:00,
2013-01-15 21:05:00,28.8,25.1,30.25,North,349,0.0,0.0,86,0.00,CLR,,0.00,WeatherDisplay:10.37,2013-01-16 02:05:00,
2013-01-15 21:10:00,28.8,25.1,30.25,North,349,0.0,0.0,86,0.00,CLR,,0.00,WeatherDisplay:10.37,2013-01-16 02:10:00,
2013-01-15 21:15:00,28.7,25.0,30.25,North,349,0.0,0.0,86,0.00,CLR,,0.00,WeatherDisplay:10.37,2013-01-16 02:15:00,
2013-01-15 21:20:00,28.7,25.0,30.25,North,349,0.0,0.0,86,0.00,CLR,,0.00,WeatherDisplay:10.37,2013-01-16 02:20:00,
2013-01-15 21:25:00,28.7,25.3,30.26,North,349,0.0,0.0,87,0.00,CLR,,0.00,WeatherDisplay:10.37,2013-01-16 02:25:00,
2013-01-15 21:30:00,28.7,25.3,30.25,North,349,0.0,0.0,87,0.00,CLR,,0.00,WeatherDisplay:10.37,2013-01-16 02:30:00,
2013-01-15 21:35:00,28.6,25.2,30.25,North,349,0.0,0.0,87,0.00,CLR,,0.00,WeatherDisplay:10.37,2013-01-16 02:35:00,
2013-01-15 21:40:00,28.5,25.1,30.25,North,349,0.0,0.0,87,0.00,CLR,,0.00,WeatherDisplay:10.37,2013-01-16 02:40:00,
2013-01-15 21:45:00,28.5,25.1,30.25,North,349,0.0,0.0,87,0.00,CLR,,0.00,WeatherDisplay:10.37,2013-01-16 02:45:00,
2013-01-15 21:50:00,28.4,25.0,30.24,North,349,0.0,0.0,87,0.00,CLR,,0.00,WeatherDisplay:10.37,2013-01-16 02:50:00,
2013-01-15 21:55:00,28.3,24.9,30.24,North,349,0.0,0.0,87,0.00,CLR,,0.00,WeatherDisplay:10.37,2013-01-16 02:55:00,
2013-01-15 22:00:00,28.3,25.2,30.24,North,349,0.0,0.0,88,0.00,CLR,,0.00,WeatherDisplay:10.37,2013-01-16 03:00:00,
2013-01-15 22:05:00,28.3,25.2,30.24,North,349,0.0,0.0,88,0.00,CLR,,0.00,WeatherDisplay:10.37,2013-01-16 03:05:00,
2013-01-15 22:10:00,28.3,25.2,30.24,North,349,0.0,0.0,88,0.00,CLR,,0.00,WeatherDisplay:10.37,2013-01-16 03:10:00,
2013-01-15 22:15:00,28.3,25.2,30.24,North,349,0.0,0.0,88,0.00,CLR,,0.00,WeatherDisplay:10.37,2013-01-16 03:15:00,
2013-01-15 22:20:00,28.2,25.1,30.23,North,349,0.0,0.0,88,0.00,CLR,,0.00,WeatherDisplay:10.37,2013-01-16 03:20:00,
2013-01-15 22:25:00,28.2,25.4,30.23,North,349,0.0,0.0,89,0.00,CLR,,0.00,WeatherDisplay:10.37,2013-01-16 03:25:00,
2013-01-15 22:30:00,28.1,25.0,30.23,North,349,0.0,0.0,88,0.00,CLR,,0.00,WeatherDisplay:10.37,2013-01-16 03:30:00,
2013-01-15 22:35:00,28.1,25.3,30.24,North,349,0.0,0.0,89,0.00,CLR,,0.00,WeatherDisplay:10.37,2013-01-16 03:35:00,
2013-01-15 22:40:00,28.1,25.0,30.24,North,349,0.0,0.0,88,0.00,CLR,,0.00,WeatherDisplay:10.37,2013-01-16 03:40:00,
2013-01-15 22:45:00,28.0,25.2,30.24,North,349,0.0,0.0,89,0.00,CLR,,0.00,WeatherDisplay:10.37,2013-01-16 03:45:00,
2013-01-15 22:50:00,28.0,25.2,30.24,North,349,0.0,0.0,89,0.00,CLR,,0.00,WeatherDisplay:10.37,2013-01-16 03:50:00,
2013-01-15 22:55:00,28.0,25.2,30.24,North,349,0.0,0.0,89,0.00,CLR,,0.00,WeatherDisplay:10.37,2013-01-16 03:55:00,
2013-01-15 23:05:00,28.0,25.2,30.24,North,349,0.0,0.0,89,0.00,CLR,,0.00,WeatherDisplay:10.37,2013-01-16 04:05:00,
2013-01-15 23:10:00,28.0,25.2,30.25,North,349,0.0,0.0,89,0.00,CLR,,0.00,WeatherDisplay:10.37,2013-01-16 04:10:00,
2013-01-15 23:15:00,28.0,25.5,30.24,North,349,0.0,0.0,90,0.00,CLR,,0.00,WeatherDisplay:10.37,2013-01-16 04:15:00,
2013-01-15 23:20:00,28.0,25.2,30.24,North,349,0.0,0.0,89,0.00,CLR,,0.00,WeatherDisplay:10.37,2013-01-16 04:20:00,
2013-01-15 23:25:00,28.0,25.4,30.24,North,349,0.0,0.0,90,0.00,CLR,,0.00,WeatherDisplay:10.37,2013-01-16 04:25:00,
2013-01-15 23:30:00,28.0,25.4,30.24,North,349,0.0,0.0,90,0.00,CLR,,0.00,WeatherDisplay:10.37,2013-01-16 04:30:00,
2013-01-15 23:35:00,28.1,25.5,30.24,North,349,0.0,0.0,90,0.00,CLR,,0.00,WeatherDisplay:10.37,2013-01-16 04:35:00,
2013-01-15 23:40:00,28.0,25.5,30.24,North,349,0.0,0.0,90,0.00,CLR,,0.00,WeatherDisplay:10.37,2013-01-16 04:40:00,
2013-01-15 23:45:00,28.0,25.5,30.24,North,349,0.0,0.0,90,0.00,CLR,,0.00,WeatherDisplay:10.37,2013-01-16 04:45:00,
2013-01-15 23:50:00,28.0,25.4,30.23,North,349,0.0,0.0,90,0.00,CLR,,0.00,WeatherDisplay:10.37,2013-01-16 04:50:00,
2013-01-15 23:55:00,28.0,25.4,30.23,North,349,0.0,0.0,90,0.00,CLR,,0.00,WeatherDisplay:10.37,2013-01-16 04:55:00,